カタログに戻る

ATLAS CENTAUR R/B

運用中MEO
NORAD 43341·ROCKET BODY·🇺🇸 United States

打ち上げ Apr 14, 2018 から Cape Canaveral Space Force Station

Loading…

次のパス (今後24時間)

TLE

最新Source: Space-Track

元期: Sep 13, 2026, 19:48 UTC

1 43341U 18036C   26256.82535722 -.00000140  00000-0  00000-0 0  9994
2 43341   6.9024  63.0770 0443914 209.7282 147.8515  1.08308769 27749

AllMySatでATLAS CENTAUR R/Bをリアルタイム追跡

Download on the App Store